Weather History for KP28 - July, 2013

Change the Weather History Date:

Friday, July 12, 2013

  Actual Average Record
Temperature  
Mean Temperature 88 °F 82 °F  
Max Temperature 103 °F 95 °F 110 °F (1954)
Min Temperature 72 °F 70 °F 50 °F (1975)
Degree Days  
Heating Degree Days 0 0  
Month to date heating degree days 0 0  
Since 1 June heating degree days 4 3  
Since 1 July heating degree days 0 0  
Cooling Degree Days 23 17  
Month to date cooling degree days 203 196  
Year to date cooling degree days 750 705  
Since 1 June cooling degree days 607 549  
Growing Degree Days 37 (Base 50)    
Moisture  
Dew Point 64 °F    
Average Humidity 54    
Maximum Humidity 84    
Minimum Humidity 23    
Precipitation  
Precipitation 0.00 in 0.11 in 1.91 in (2007)
Month to date precipitation 0.16 1.40  
Year to date precipitation 12.73 15.25  
Snow  
Snow 0.00 in 0.00 in - ()
Month to date snowfall 0.0 0.0  
Since 1 June snowfall 0.0 0.0  
Since 1 July snowfall 0.0 0.0  
Snow Depth 0.00 in    
Sea Level Pressure  
Sea Level Pressure 29.88 in    
Wind  
Wind Speed 11 mph (SSE)    
Max Wind Speed 21 mph    
Max Gust Speed 29 mph    
T = Trace of Precipitation, MM = Missing Value Source: NWS Daily Summary

Daily Weather History Graph

Daily Weather History Graph

Search for Another Location

Airport or City:

Trip Planner

Search our weather history database for the weather conditions in past years. The results will help you decide how hot, cold, wet, or windy it might be!

Date:

Astronomy

Jul. 12, 2013 Rise Set
Actual Time 6:23 AM CDT 8:55 PM CDT
Civil Twilight 5:53 AM CDT 9:25 PM CDT
Nautical Twilight 5:15 AM CDT 10:03 PM CDT
Astronomical Twilight 4:34 AM CDT 10:45 PM CDT
Moon 10:35 AM CDT (7/12) 11:14 PM CDT (7/12)
Length of Visible Light 15h 32m
Length of Day
14h 31m
Waxing Crescent, 17% of the Moon is Illuminated
Jul 12
Waxing Crescent
Jul 15
First Quarter
Jul 22
Full
Jul 29
Last Quarter
Aug 6
New

Hourly Weather History & Observations

Time (CDT) Temp. Heat Index Dew Point Humidity Pressure Visibility Wind Dir Wind Speed Gust Speed Precip Events Conditions
12:56 AM 81.0 °F 83.8 °F 68.0 °F 65% 29.91 in - ESE 5.8 mph - N/A   Unknown
1:56 AM 79.0 °F - 68.0 °F 69% 29.91 in - ESE 6.9 mph - N/A   Unknown
2:56 AM 77.0 °F - 66.9 °F 71% 29.91 in - ESE 6.9 mph - N/A   Unknown
3:56 AM 75.9 °F - 66.9 °F 74% 29.90 in - ESE 6.9 mph - N/A   Unknown
4:56 AM 73.9 °F - 66.0 °F 76% 29.90 in - ESE 6.9 mph - N/A   Unknown
5:56 AM 73.9 °F - 66.0 °F 76% 29.91 in - ESE 8.1 mph - N/A   Unknown
6:56 AM 72.0 °F - 66.0 °F 81% 29.91 in - ESE 5.8 mph - N/A   Unknown
7:56 AM 75.0 °F - 66.9 °F 76% 29.91 in - SE 3.5 mph - N/A   Unknown
8:56 AM 81.0 °F 83.0 °F 66.0 °F 60% 29.91 in - Variable 6.9 mph - N/A   Unknown
9:56 AM 84.9 °F 87.1 °F 66.0 °F 53% 29.91 in - South 10.4 mph - N/A   Unknown
10:56 AM 90.0 °F 92.4 °F 66.0 °F 45% 29.90 in - SSW 8.1 mph - N/A   Unknown
11:56 AM 95.0 °F 97.0 °F 64.0 °F 36% 29.89 in - SSW 16.1 mph - N/A   Unknown
12:56 PM 97.0 °F 97.4 °F 61.0 °F 30% 29.87 in - South 12.7 mph 27.6 mph N/A   Unknown
1:56 PM 100.0 °F 100.2 °F 59.0 °F 26% 29.86 in - South 18.4 mph 23.0 mph N/A   Unknown
2:56 PM 100.9 °F 101.0 °F 59.0 °F 25% 29.85 in - South 16.1 mph 24.2 mph N/A   Unknown
3:56 PM 102.0 °F 101.6 °F 57.9 °F 23% 29.83 in - South 13.8 mph 27.6 mph N/A   Unknown
4:56 PM 100.9 °F 101.0 °F 59.0 °F 25% 29.82 in - SSE 13.8 mph 20.7 mph N/A   Unknown
5:56 PM 100.9 °F 100.5 °F 57.9 °F 24% 29.81 in - South 16.1 mph 26.5 mph N/A   Unknown
6:56 PM 99.0 °F 98.1 °F 57.9 °F 25% 29.82 in - South 15.0 mph 23.0 mph N/A   Unknown
7:56 PM 97.0 °F 96.9 °F 60.1 °F 29% 29.83 in - SSE 13.8 mph 23.0 mph N/A   Unknown
8:56 PM 93.0 °F 94.2 °F 63.0 °F 37% 29.84 in - SSE 11.5 mph 20.7 mph N/A   Unknown
9:56 PM 90.0 °F 91.7 °F 64.9 °F 43% 29.87 in - SSE 9.2 mph - N/A   Unknown
10:56 PM 87.1 °F 89.2 °F 66.0 °F 49% 29.89 in - SE 9.2 mph - N/A   Unknown
11:56 PM 84.9 °F 87.1 °F 66.0 °F 53% 29.90 in - SSE 9.2 mph - N/A   Unknown